TimeEDT,TemperatureF,Dew PointF,Humidity,Sea Level PressureIn,VisibilityMPH,Wind Direction,Wind SpeedMPH,Gust SpeedMPH,PrecipitationIn,Events,Conditions,WindDirDegrees,DateUTC
12:53 AM,61.0,54.0,78,30.17,10.0,ENE,6.9,18.4,N/A,,Partly Cloudy,70,2013-05-02 04:53:00
1:53 AM,60.1,54.0,80,30.16,10.0,Variable,6.9,-,N/A,,Clear,0,2013-05-02 05:53:00
2:53 AM,59.0,53.1,81,30.15,10.0,East,8.1,17.3,N/A,,Mostly Cloudy,80,2013-05-02 06:53:00
3:53 AM,59.0,53.1,81,30.13,10.0,Variable,6.9,-,N/A,,Mostly Cloudy,0,2013-05-02 07:53:00
4:16 AM,59.0,53.6,82,30.15,10.0,ENE,8.1,-,N/A,,Mostly Cloudy,70,2013-05-02 08:16:00
4:53 AM,59.0,54.0,83,30.13,10.0,ENE,6.9,16.1,N/A,,Overcast,70,2013-05-02 08:53:00
5:02 AM,59.0,53.6,82,30.15,10.0,Variable,5.8,-,N/A,,Overcast,0,2013-05-02 09:02:00
5:53 AM,59.0,55.0,87,30.13,10.0,East,8.1,-,N/A,,Overcast,80,2013-05-02 09:53:00
6:53 AM,59.0,55.0,87,30.14,10.0,ENE,8.1,-,N/A,,Overcast,70,2013-05-02 10:53:00
7:10 AM,59.0,55.4,88,30.16,9.0,East,8.1,16.1,0.00,Rain,Light Rain,80,2013-05-02 11:10:00
7:53 AM,59.0,55.9,90,30.15,6.0,ENE,9.2,-,0.00,,Overcast,70,2013-05-02 11:53:00
8:53 AM,60.1,57.0,90,30.16,10.0,ENE,8.1,16.1,N/A,,Overcast,70,2013-05-02 12:53:00
9:53 AM,60.1,57.0,90,30.17,10.0,Variable,5.8,-,N/A,,Overcast,0,2013-05-02 13:53:00
10:53 AM,61.0,57.0,87,30.18,10.0,East,8.1,-,N/A,,Overcast,80,2013-05-02 14:53:00
11:27 AM,62.6,57.2,82,30.20,10.0,Variable,6.9,-,N/A,,Overcast,0,2013-05-02 15:27:00
11:53 AM,62.1,57.0,84,30.19,10.0,East,8.1,16.1,N/A,,Overcast,90,2013-05-02 15:53:00
12:11 PM,62.6,57.2,82,30.20,10.0,ENE,10.4,17.3,N/A,,Overcast,70,2013-05-02 16:11:00
12:53 PM,62.1,57.9,86,30.18,7.0,East,5.8,17.3,N/A,,Overcast,80,2013-05-02 16:53:00
1:02 PM,62.6,57.2,82,30.19,7.0,Variable,6.9,-,N/A,,Overcast,0,2013-05-02 17:02:00
1:53 PM,62.1,57.9,86,30.18,10.0,East,8.1,-,0.00,,Overcast,80,2013-05-02 17:53:00
2:24 PM,62.6,57.2,82,30.18,10.0,Variable,4.6,-,N/A,,Overcast,0,2013-05-02 18:24:00
2:53 PM,63.0,57.9,84,30.17,9.0,ENE,6.9,18.4,N/A,,Overcast,70,2013-05-02 18:53:00
3:53 PM,66.0,57.9,75,30.14,10.0,East,11.5,19.6,N/A,,Overcast,80,2013-05-02 19:53:00
4:53 PM,64.9,57.0,75,30.13,10.0,ENE,9.2,21.9,N/A,,Overcast,70,2013-05-02 20:53:00
5:00 PM,64.4,57.2,77,30.14,10.0,Variable,6.9,19.6,N/A,,Overcast,0,2013-05-02 21:00:00
5:53 PM,64.9,57.0,75,30.12,10.0,East,5.8,-,N/A,,Overcast,80,2013-05-02 21:53:00
6:53 PM,64.9,57.0,75,30.12,10.0,ENE,9.2,-,N/A,,Overcast,60,2013-05-02 22:53:00
7:25 PM,64.4,57.2,77,30.13,5.0,East,5.8,-,0.00,Rain,Light Rain,80,2013-05-02 23:25:00
7:53 PM,62.1,57.9,86,30.13,4.0,Variable,6.9,-,0.00,,Overcast,0,2013-05-02 23:53:00
8:07 PM,60.8,59.0,94,30.14,2.5,East,9.2,-,N/A,,Overcast,90,2013-05-03 00:07:00
8:53 PM,60.1,57.0,90,30.14,2.5,East,9.2,18.4,0.00,Rain,Light Rain,80,2013-05-03 00:53:00
8:58 PM,60.8,57.2,88,30.15,2.5,ENE,9.2,18.4,0.00,,Overcast,70,2013-05-03 00:58:00
9:53 PM,60.1,57.0,90,30.14,2.5,East,8.1,-,0.00,,Overcast,80,2013-05-03 01:53:00
10:00 PM,60.8,55.4,82,30.15,10.0,ENE,8.1,21.9,N/A,,Overcast,70,2013-05-03 02:00:00
10:53 PM,60.1,55.9,86,30.14,10.0,ENE,9.2,-,N/A,,Overcast,70,2013-05-03 02:53:00
11:53 PM,60.1,55.9,86,30.13,10.0,ENE,11.5,17.3,N/A,,Overcast,70,2013-05-03 03:53:00